Wilmington, OH (45177)

8:58 PM EST on February 08, 2016 (GMT -0500)
2.2 N Wilmington | | Change Station
CLOSE
Current Station
Personal Weather Station
Location: Wilmington, OH
Elevation: 1053 ft
Nearby Weather Stations
Active Advisory: Winter Weather Advisory Active Notice: Local Storm Report

Elev 1053 ft 39.47 °N, 83.84 °W | Updated 14 minutes ago

Light Snow
Light Snow Mist
31.5 °F
Feels Like 24 °F
N
8.0
Wind Variable Wind from NNW
Gusts 13.0 mph

Today
High -- | Low -- °F
--% Chance of Precip.
Yesterday
High -- | Low -- °F
Precip. -- in
Pressure 29.72 in
Visibility 2.0 miles
Clouds Scattered Clouds 400 ft
Mostly Cloudy 1000 ft
Overcast 1400 ft
Windchill 24 °F
Dew Point 30 °F
Humidity 94%
Rainfall 0.23 in
Snow Depth Not available.
7:36 AM 6:03 PM
New Moon, 0% visible
METAR KILN 090154Z AUTO 30016KT 2SM -SN BR SCT004 BKN010 OVC014 M01/M02 A2965 RMK AO2 SLP063 P0006 T10061017
Pressure 29.72 in
Visibility 2.0 miles
Clouds Scattered Clouds 400 ft
Mostly Cloudy 1000 ft
Overcast 1400 ft
Windchill 24 °F
Dew Point 30 °F
Humidity 94%
Rainfall 0.23 in
Snow Depth Not available.
7:36 AM 6:03 PM
New Moon, 0% visible
METAR KILN 090154Z AUTO 30016KT 2SM -SN BR SCT004 BKN010 OVC014 M01/M02 A2965 RMK AO2 SLP063 P0006 T10061017

10-Day Weather Forecast

Almanac

Astronomy

Feb. 08, 2016 Rise Set
Actual Time
Civil Twilight
Nautical Twilight
Astronomical Twilight
Moon
Length of Visible Light
Length of Day
Tomorrow will be .
, % of the Moon is Illuminated

Today's Extremes

State Highs State Lows

Community

WunderPhotos

Upload Photos

1,891,527 photos uploaded!

WunderBlog® & News

Nearby

Air Quality

  Air Quality AQ Index Pollutant
Not available.

Snow Depth

Station Depth Elevation

Earthquake Activity

City Distance Mag. Time & Date
Minimum magnitude displayed is 2.5.

Coastal Water Temperatures

Place Temperature

Stations

Nearby Weather Stations

Station Location Temp. Windchill Dew Point Humidity Wind Precip. Elev Updated Type
                   

Watches & Warnings

Winter Weather Advisory
Issued: 4:13 PM EST Feb. 8, 2016 – National Weather Service

... Winter Weather Advisory remains in effect until 6 am EST
Wednesday...

* hazard types... snow showers.

* Accumulations... snow accumulation of 2 to 4 inches.

* Timing... snow showers with some lingering rain mixed in will
transition over to all snow showers early this evening.
Occasional snow showers will then continue tonight through
Tuesday night.

* Impacts... travel difficulties are expected due to reduced
visibilities and snow accumulations.

Precautionary/preparedness actions...

Remember... a Winter Weather Advisory for snow means that periods
of snow will cause primarily travel difficulties. Be prepared for
snow covered roads and limited visibilities... and use caution
while driving. Stay tuned to NOAA Weather Radio or your favorite
source of information for the latest updates. Additional details
can also be found at www.Weather.Gov/iln as well as on our
facebook and twitter pages.